sat.trackr.live / text

‹ back to catalog

STARLINK-31639

NORAD 59261 · 2024-050H

PAYLOAD ACTIVE UNKNOWN

§ Identity

Operator
Country
US
Launch date
2024-03-19
Launch site
AFWTR
Launch vehicle
Mass (kg)
RCS (m²)

Purposes: comms

External: N2YO · Heavens-Above · Gunter

§ Orbital elements

Epoch: 2026-05-25T03:05:30.219072Z

Period
94.10 min
Inclination
53.1596°
Eccentricity
0.0000586
Mean motion
15.30236063 rev/d
Perigee alt
474.7 km
Apogee alt
475.5 km
Semi-major
6,853.2 km
B*
-2.3524e-4
RAAN
185.8101°
Arg perigee
56.8248°
Mean anomaly
303.2809°
Rev number
12,225

§ Raw data

STARLINK-316391 59261U 24050H   26145.12882198 -.00007327  00000+0 -23524-3 0  99902 59261  53.1596 185.8101 0000586  56.8248 303.2809 15.30236063122256

JSON: /api/v1/satellites/59261 · /tle

For live sub-satellite position, see the globe view (requires WebGL).

§ Visibility from observer

Set your observer location to see the next 7 days of passes ≥ 10°. The values pass through the URL so the page stays shareable.

No JS? Fill the form by hand. The geolocation button needs JavaScript.